This is the latest recevied weather packets stored in our database for station/object EA2FBA-10. If no packets are shown the sender has not sent any weather packets the latest 10 day(s).
| Time | Temp. | Humidity | Pressure | Rain* | Wind** | Luminosity | Snow |
|---|---|---|---|---|---|---|---|
| 1788086423 | 23.89° C | 49% | 955.2 hPa | - | - | - | - |
| 1788085523 | 23.33° C | 50% | 955.3 hPa | - | - | - | - |
| 1788084623 | 22.78° C | 53% | 955.5 hPa | - | - | - | - |
| 1788083723 | 22.78° C | 54% | 955.6 hPa | - | - | - | - |
| 1788082832 | 21.67° C | 55% | 955.7 hPa | - | - | - | - |
| 1788082823 | 21.67° C | 55% | 955.7 hPa | - | - | - | - |
| 1788081923 | 21.67° C | 58% | 955.8 hPa | - | - | - | - |
| 1788081034 | 20.56° C | 60% | 955.9 hPa | - | - | - | - |
| 1788081022 | 20.56° C | 60% | 955.9 hPa | - | - | - | - |
| 1788080133 | 21.11° C | 61% | 956 hPa | - | - | - | - |
| 1788080122 | 21.11° C | 61% | 956 hPa | - | - | - | - |
| 1788079222 | 20.56° C | 58% | 956 hPa | - | - | - | - |
| 1788078338 | 20° C | 59% | 955.9 hPa | - | - | - | - |
| 1788078322 | 20° C | 59% | 955.9 hPa | - | - | - | - |
| 1788077432 | 19.44° C | 60% | 955 hPa | - | - | - | - |
| 1788077422 | 19.44° C | 60% | 955 hPa | - | - | - | - |
| 1788076522 | 19.44° C | 60% | 955.9 hPa | - | - | - | - |
| 1788075622 | 19.44° C | 61% | 956 hPa | - | - | - | - |
| 1788074722 | 18.89° C | 61% | 955.8 hPa | - | - | - | - |
| 1788073822 | 18.33° C | 61% | 955.9 hPa | - | - | - | - |
| 1788072933 | 18.33° C | 61% | 955.9 hPa | - | - | - | - |
| 1788072922 | 18.33° C | 61% | 955.9 hPa | - | - | - | - |
| 1788072032 | 17.78° C | 61% | 955.9 hPa | - | - | - | - |
| 1788072021 | 17.78° C | 61% | 955.9 hPa | - | - | - | - |
| 1788071121 | 17.78° C | 62% | 955.9 hPa | - | - | - | - |
* Rain since midnight (hover to see other rain measurements)
** Current wind speed in m/s (hover to see current wind gust speed)